Weather in Novomaksimovsky

Russia / Volgograd Oblast     48°28′46″N   43°09′33″E
temp.,
°C
wind,
m/s
gust,
m/s
humid.,
%
clouds,
%
prec.,
mm/h
press.,
hPa
HPBL,
m
25 july, sun
sun2500:00+24n464955 0.0 1014130
03:00+21ne48561 0.0 1015131
06:00+22ene23563 0.0 101690
09:00+25ne33465 0.0 1017553
12:00+27nw113951 0.0 10171671
15:00+28ne123739 0.0 10171728
18:00+29n333771 0.0 10171184
21:00+25ne711479 0.0 1019244
26 july, mon
mon2600:00+22ne511510 0.0 1020220
03:00+21ne510512 0.0 1020228
06:00+22ne612501 0.0 1021315
09:00+26e79385 0.0 1021623
12:00+29e663427 0.0 10201324
15:00+30ene553375 0.0 10191683
18:00+29ne893485 0.0 1019821
21:00+24ene6114057 0.0 1020168
27 july, tue
tue2700:00+23ene51044100 0.0 1020236
03:00+22ene594435 0.0 1021227
06:00+22ne474474 0.0 1022181
09:00+26ene563725 0.0 1021689
12:00+28ne553399 0.0 10201468
15:00+29ne563194 0.0 10191647
18:00+28ne5633100 0.0 10181634
21:00+23ese334114 0.0 101923
28 july, wed
wed2800:00+22ene33438 0.0 101920
03:00+21ne22455 0.0 101912
06:00+22nne22475 0.0 101937
09:00+25ene11402 0.0 1019621
12:00+26sw223634 0.0 10181799
15:00+29sw223444 0.0 10161769
18:00+29ssw23345 0.0 10151045
21:00+25sw224410 0.0 101612
29 july, thu
thu2900:00+24s224651 0.0 101515
03:00+23ssw334773 0.0 101415
06:00+22sw375297 0.0 1014140
09:00+27sw574049 0.0 1013427
12:00+30ssw783576 0.0 10111676
15:00+29wsw5939100 0.1 10101327
18:00+26nw4856100 0.9 1010358
21:00+24nw3469100 2.8 101040